AAL1056 MDPC-KPHL

Flight info

Callsign AAL1056
Flight time N/A
Altitude 35000
Route CHUMA2T CHUMA Y315 DOZGO DCT DONQU DCT LAMER L453 SAUCR Y488 CHUBY Y488 HOBOH DCT SILLY DCT BOJAN B24 WICKE DCT DASHA JIIMS4
Aircraft B738/M-SDE2E3FGHIRWXY/LB1

Departure

Time 2026-05-07 18:11
Airport Punta Cana International Airport (MDPC)

Arrival

Time N/A
Airport Philadelphia International Airport (KPHL)
Time Latitude Longitude Altitude Speed Heading
2026-05-07 17:45 18.56351 -68.37105 49 ft 0 kts 264°
2026-05-07 17:45 18.56351 -68.37104 49 ft 0 kts 264°
2026-05-07 17:59 18.56352 -68.37098 49 ft 4 kts 264°
2026-05-07 17:59 18.56354 -68.37069 49 ft 4 kts 266°
2026-05-07 17:59 18.56356 -68.37041 49 ft 4 kts 268°
2026-05-07 18:00 18.56354 -68.37014 49 ft 4 kts 302°
2026-05-07 18:00 18.56345 -68.37005 46 ft 0 kts 354°
2026-05-07 18:03 18.56366 -68.37008 47 ft 6 kts 353°
2026-05-07 18:03 18.56422 -68.37014 49 ft 11 kts 355°
2026-05-07 18:04 18.56489 -68.37041 48 ft 11 kts 304°
2026-05-07 18:04 18.56495 -68.37117 49 ft 10 kts 267°
2026-05-07 18:04 18.56490 -68.37192 49 ft 10 kts 265°
2026-05-07 18:04 18.56483 -68.37263 49 ft 10 kts 263°
2026-05-07 18:05 18.56475 -68.37333 47 ft 9 kts 264°
2026-05-07 18:05 18.56472 -68.37401 48 ft 9 kts 268°
2026-05-07 18:05 18.56466 -68.37468 48 ft 9 kts 264°
2026-05-07 18:05 18.56459 -68.37532 48 ft 9 kts 265°
2026-05-07 18:06 18.56456 -68.37595 48 ft 8 kts 268°
2026-05-07 18:06 18.56450 -68.37656 48 ft 8 kts 259°
2026-05-07 18:06 18.56443 -68.37715 48 ft 8 kts 263°
2026-05-07 18:06 18.56457 -68.37769 46 ft 8 kts 307°
2026-05-07 18:07 18.56505 -68.37787 47 ft 8 kts 354°
2026-05-07 18:07 18.56558 -68.37793 47 ft 8 kts 353°
2026-05-07 18:07 18.56614 -68.37799 46 ft 8 kts 355°
2026-05-07 18:07 18.56666 -68.37810 46 ft 8 kts 333°
2026-05-07 18:08 18.56702 -68.37852 47 ft 9 kts 298°
2026-05-07 18:08 18.56731 -68.37916 48 ft 10 kts 297°
2026-05-07 18:08 18.56763 -68.37986 49 ft 11 kts 309°
2026-05-07 18:08 18.56796 -68.38057 47 ft 11 kts 291°
2026-05-07 18:09 18.56825 -68.38128 47 ft 11 kts 294°
2026-05-07 18:09 18.56858 -68.38195 51 ft 10 kts 299°
2026-05-07 18:09 18.56901 -68.38253 52 ft 10 kts 330°
2026-05-07 18:09 18.56967 -68.38276 53 ft 10 kts 342°
2026-05-07 18:10 18.57018 -68.38287 50 ft 4 kts 18°
2026-05-07 18:10 18.57042 -68.38264 53 ft 6 kts 58°
2026-05-07 18:10 18.57048 -68.38249 50 ft 3 kts 71°
2026-05-07 18:10 18.57093 -68.38086 53 ft 53 kts 74°
2026-05-07 18:11 18.57253 -68.37505 50 ft 109 kts 74°
2026-05-07 18:11 18.57412 -68.36926 47 ft 138 kts 73°
2026-05-07 18:11 18.57817 -68.35475 424 ft 160 kts 76°
2026-05-07 18:11 18.58128 -68.34296 871 ft 171 kts 76°
2026-05-07 18:12 18.58428 -68.33108 1477 ft 168 kts 73°
2026-05-07 18:12 18.59094 -68.32057 1964 ft 182 kts 34°
2026-05-07 18:12 18.60228 -68.31361 2347 ft 200 kts 33°
2026-05-07 18:12 18.61523 -68.30667 2583 ft 221 kts 13°
2026-05-07 18:13 18.63026 -68.30818 3155 ft 218 kts 349°
2026-05-07 18:13 18.64521 -68.31100 3691 ft 217 kts 352°
2026-05-07 18:13 18.66045 -68.31345 4109 ft 224 kts 353°
2026-05-07 18:13 18.67600 -68.31577 4647 ft 228 kts 353°
2026-05-07 18:14 18.69194 -68.31807 5227 ft 231 kts 353°
2026-05-07 18:14 18.70784 -68.32033 5688 ft 244 kts 352°
2026-05-07 18:14 18.72597 -68.32289 5577 ft 276 kts 353°
2026-05-07 18:14 18.74521 -68.32559 5525 ft 279 kts 353°
2026-05-07 18:15 18.76459 -68.32831 5486 ft 281 kts 353°
2026-05-07 18:15 18.78371 -68.33098 5449 ft 280 kts 353°
2026-05-07 18:15 18.79673 -68.33279 5437 ft 279 kts 353°
2026-05-07 18:15 18.82213 -68.33632 5423 ft 277 kts 352°
2026-05-07 18:16 18.83507 -68.33812 5426 ft 277 kts 352°
2026-05-07 18:16 18.85394 -68.34073 5442 ft 277 kts 352°
2026-05-07 18:16 18.87328 -68.34342 5792 ft 283 kts 352°
2026-05-07 18:16 18.89275 -68.34613 6588 ft 281 kts 352°
2026-05-07 18:17 18.91225 -68.34884 7247 ft 285 kts 352°
2026-05-07 18:17 18.93208 -68.35160 7910 ft 289 kts 353°
2026-05-07 18:17 18.95206 -68.35437 8659 ft 290 kts 353°
2026-05-07 18:17 18.97219 -68.35717 9393 ft 293 kts 353°
2026-05-07 18:18 18.99257 -68.36001 10108 ft 297 kts 353°
2026-05-07 18:18 19.01331 -68.36289 10413 ft 316 kts 353°
2026-05-07 18:18 19.03584 -68.36602 10574 ft 337 kts 353°
2026-05-07 18:18 19.05981 -68.36936 10727 ft 357 kts 353°
2026-05-07 18:19 19.08511 -68.37289 10854 ft 375 kts 353°
2026-05-07 18:19 19.11150 -68.37658 11094 ft 387 kts 352°
2026-05-07 18:19 19.13845 -68.38034 11519 ft 392 kts 352°
2026-05-07 18:19 19.16555 -68.38412 12129 ft 392 kts 352°
2026-05-07 18:20 19.19173 -68.38703 12699 ft 394 kts 359°
2026-05-07 18:20 19.21849 -68.38178 13148 ft 401 kts 21°
2026-05-07 18:20 19.24280 -68.36725 13730 ft 405 kts 38°
2026-05-07 18:20 19.26276 -68.34602 14220 ft 409 kts 47°
2026-05-07 18:21 19.28172 -68.32349 14699 ft 412 kts 47°
2026-05-07 18:21 19.30068 -68.30060 15193 ft 414 kts 47°
2026-05-07 18:21 19.31978 -68.27752 15701 ft 416 kts 47°
2026-05-07 18:21 19.33874 -68.25473 16193 ft 419 kts 47°
2026-05-07 18:22 19.35811 -68.23159 16673 ft 421 kts 47°
2026-05-07 18:22 19.37131 -68.21589 16999 ft 423 kts 47°
2026-05-07 18:22 19.39736 -68.18498 17621 ft 426 kts 47°
2026-05-07 18:22 19.41722 -68.16146 18073 ft 428 kts 47°
2026-05-07 18:23 19.43720 -68.13781 18481 ft 431 kts 47°
2026-05-07 18:23 19.45699 -68.11438 18843 ft 433 kts 47°
2026-05-07 18:23 19.47714 -68.09052 19252 ft 434 kts 47°
2026-05-07 18:23 19.49737 -68.06655 19661 ft 435 kts 47°
2026-05-07 18:24 19.51764 -68.04251 20044 ft 437 kts 47°
2026-05-07 18:24 19.53777 -68.01864 20404 ft 438 kts 47°
2026-05-07 18:24 19.55816 -67.99444 20765 ft 440 kts 47°
2026-05-07 18:24 19.57858 -67.97019 21117 ft 441 kts 47°
2026-05-07 18:25 19.59905 -67.94589 21460 ft 443 kts 47°
2026-05-07 18:25 19.61967 -67.92139 21795 ft 444 kts 47°
2026-05-07 18:25 19.64007 -67.89713 22115 ft 446 kts 47°
2026-05-07 18:25 19.66080 -67.87249 22425 ft 447 kts 48°
2026-05-07 18:26 19.68156 -67.84779 22729 ft 448 kts 48°
2026-05-07 18:26 19.70243 -67.82295 23014 ft 450 kts 47°
2026-05-07 18:26 19.72335 -67.79804 23187 ft 454 kts 47°
2026-05-07 18:26 19.74441 -67.77296 23513 ft 454 kts 48°
2026-05-07 18:27 19.76525 -67.74812 23772 ft 455 kts 47°
2026-05-07 18:27 19.78640 -67.72290 23980 ft 456 kts 47°
2026-05-07 18:27 19.80761 -67.69761 24231 ft 457 kts 47°
2026-05-07 18:27 19.82848 -67.67271 24461 ft 458 kts 47°
2026-05-07 18:28 19.84974 -67.64733 24675 ft 459 kts 47°
2026-05-07 18:28 19.87102 -67.62190 24886 ft 461 kts 47°
2026-05-07 18:28 19.89237 -67.59639 25083 ft 462 kts 47°
2026-05-07 18:28 19.91379 -67.57079 25286 ft 464 kts 47°
2026-05-07 18:29 19.93583 -67.54573 25473 ft 464 kts 40°
2026-05-07 18:29 19.96302 -67.52743 25694 ft 463 kts 22°
2026-05-07 18:29 19.99350 -67.51822 25993 ft 461 kts
2026-05-07 18:29 20.02563 -67.51731 26217 ft 463 kts 354°
2026-05-07 18:30 20.05706 -67.52483 26402 ft 466 kts 341°
2026-05-07 18:30 20.08630 -67.54028 26594 ft 470 kts 327°
2026-05-07 18:30 20.11144 -67.56208 26858 ft 470 kts 320°
2026-05-07 18:30 20.13594 -67.58521 27117 ft 470 kts 320°
2026-05-07 18:31 20.16034 -67.60863 27357 ft 469 kts 320°
2026-05-07 18:31 20.18459 -67.63187 27637 ft 468 kts 320°
2026-05-07 18:31 20.20854 -67.65462 27974 ft 465 kts 320°
2026-05-07 18:31 20.23275 -67.67742 28346 ft 462 kts 320°
2026-05-07 18:32 20.25684 -67.69998 28727 ft 459 kts 320°
2026-05-07 18:32 20.28088 -67.72241 29101 ft 457 kts 320°
2026-05-07 18:32 20.30453 -67.74445 29473 ft 455 kts 320°
2026-05-07 18:32 20.32831 -67.76661 29854 ft 452 kts 320°
2026-05-07 18:33 20.35197 -67.78868 30259 ft 450 kts 320°
2026-05-07 18:33 20.37556 -67.81069 30572 ft 449 kts 321°
2026-05-07 18:33 20.39907 -67.83263 30815 ft 449 kts 321°
2026-05-07 18:33 20.42262 -67.85463 31057 ft 450 kts 321°
2026-05-07 18:34 20.44611 -67.87660 31329 ft 449 kts 321°
2026-05-07 18:34 20.46932 -67.89832 31605 ft 448 kts 322°
2026-05-07 18:34 20.49289 -67.92038 31896 ft 448 kts 322°
2026-05-07 18:34 20.51634 -67.94233 32181 ft 447 kts 323°
2026-05-07 18:35 20.53978 -67.96429 32470 ft 447 kts 323°
2026-05-07 18:35 20.56312 -67.98617 32760 ft 447 kts 323°
2026-05-07 18:35 20.58650 -68.00809 33061 ft 446 kts 324°
2026-05-07 18:35 20.60949 -68.02966 33354 ft 445 kts 324°
2026-05-07 18:36 20.63277 -68.05151 33642 ft 445 kts 324°
2026-05-07 18:36 20.65613 -68.07343 33933 ft 444 kts 325°
2026-05-07 18:36 20.67912 -68.09503 34194 ft 444 kts 325°
2026-05-07 18:36 20.70306 -68.11593 34379 ft 440 kts 331°
2026-05-07 18:37 20.72896 -68.13297 34645 ft 432 kts 338°
2026-05-07 18:37 20.75637 -68.14574 34949 ft 426 kts 343°
2026-05-07 18:37 20.78396 -68.15752 35048 ft 428 kts 343°
2026-05-07 18:38 20.83908 -68.18100 35055 ft 427 kts 343°
2026-05-07 18:38 20.89400 -68.20468 35053 ft 424 kts 342°
2026-05-07 18:39 20.94836 -68.22831 35068 ft 422 kts 342°
2026-05-07 18:39 21.00292 -68.25210 35063 ft 422 kts 342°
2026-05-07 18:40 21.05711 -68.27576 35071 ft 422 kts 342°
2026-05-07 18:40 21.11161 -68.29957 35072 ft 423 kts 342°
2026-05-07 18:41 21.16586 -68.32329 35074 ft 424 kts 342°
2026-05-07 18:41 21.22067 -68.34728 35069 ft 425 kts 342°
2026-05-07 18:42 21.27559 -68.37133 35071 ft 426 kts 342°
2026-05-07 18:42 21.33028 -68.39531 35070 ft 426 kts 342°
2026-05-07 18:43 21.38541 -68.41949 35072 ft 427 kts 342°
2026-05-07 18:43 21.44023 -68.44356 35071 ft 428 kts 342°
2026-05-07 18:44 21.49548 -68.46784 35068 ft 428 kts 342°
2026-05-07 18:44 21.55043 -68.49201 35068 ft 428 kts 342°
2026-05-07 18:45 21.60570 -68.51634 35070 ft 428 kts 342°
2026-05-07 18:45 21.66068 -68.54054 35059 ft 429 kts 341°
2026-05-07 18:46 21.71600 -68.56493 35073 ft 430 kts 341°
2026-05-07 18:46 21.77150 -68.58943 35072 ft 431 kts 341°
2026-05-07 18:47 21.82675 -68.61383 35071 ft 431 kts 341°
2026-05-07 18:47 21.88249 -68.63846 35072 ft 432 kts 341°
2026-05-07 18:48 21.93788 -68.66297 35074 ft 432 kts 341°
2026-05-07 18:48 21.99359 -68.68764 35076 ft 432 kts 341°
2026-05-07 18:49 22.04903 -68.71220 35075 ft 432 kts 341°
2026-05-07 18:49 22.10480 -68.73694 35071 ft 433 kts 341°
2026-05-07 18:50 22.16018 -68.76151 35072 ft 433 kts 341°
2026-05-07 18:50 22.21605 -68.78633 35073 ft 433 kts 341°
2026-05-07 18:51 22.27150 -68.81099 35072 ft 433 kts 341°
2026-05-07 18:51 22.32727 -68.83581 35071 ft 433 kts 341°
2026-05-07 18:52 22.38308 -68.86066 35063 ft 433 kts 340°
2026-05-07 18:52 22.43863 -68.88544 35071 ft 435 kts 340°
2026-05-07 18:53 22.49479 -68.91049 35076 ft 437 kts 340°
2026-05-07 18:53 22.55126 -68.93570 35074 ft 439 kts 340°
2026-05-07 18:54 22.60779 -68.96097 35071 ft 440 kts 340°
2026-05-07 18:54 22.66414 -68.98618 35072 ft 441 kts 340°
2026-05-07 18:55 22.72088 -69.01159 35075 ft 441 kts 340°
2026-05-07 18:55 22.77783 -69.03711 35073 ft 441 kts 340°
2026-05-07 18:56 22.83429 -69.06244 35072 ft 441 kts 340°
2026-05-07 18:56 22.89110 -69.08794 35070 ft 441 kts 340°
2026-05-07 18:57 22.94752 -69.11330 35074 ft 441 kts 340°
2026-05-07 18:57 23.00420 -69.13879 35072 ft 441 kts 340°
2026-05-07 18:58 23.06105 -69.16439 35071 ft 441 kts 340°
2026-05-07 18:58 23.11740 -69.18977 35073 ft 441 kts 340°
2026-05-07 18:59 23.17427 -69.21542 35071 ft 441 kts 340°
2026-05-07 18:59 23.23078 -69.24094 35074 ft 441 kts 340°
2026-05-07 19:00 23.28768 -69.26664 35072 ft 442 kts 340°
2026-05-07 19:00 23.34414 -69.29218 35078 ft 442 kts 340°
2026-05-07 19:01 23.40116 -69.31800 35075 ft 442 kts 340°
2026-05-07 19:01 23.45765 -69.34359 35073 ft 442 kts 340°
2026-05-07 19:02 23.51455 -69.36940 35073 ft 442 kts 339°
2026-05-07 19:02 23.57113 -69.39509 35073 ft 442 kts 339°
2026-05-07 19:03 23.62801 -69.42093 35073 ft 442 kts 339°
2026-05-07 19:03 23.67531 -69.44244 35073 ft 442 kts 339°
2026-05-07 19:04 23.74027 -69.47201 35073 ft 442 kts 339°
2026-05-07 19:04 23.78764 -69.49359 35073 ft 442 kts 339°
2026-05-07 19:05 23.84456 -69.51955 35074 ft 442 kts 339°
2026-05-07 19:05 23.90111 -69.54537 35069 ft 442 kts 338°
2026-05-07 19:06 23.95797 -69.57136 35073 ft 443 kts 338°
2026-05-07 19:06 24.04345 -69.61045 35073 ft 443 kts 338°
2026-05-07 19:07 24.10012 -69.63640 35074 ft 444 kts 338°
2026-05-07 19:07 24.15729 -69.66261 35074 ft 444 kts 338°
2026-05-07 19:08 24.21404 -69.68865 35076 ft 444 kts 338°
2026-05-07 19:08 24.27105 -69.71484 35078 ft 444 kts 337°
2026-05-07 19:09 24.32822 -69.74113 35073 ft 444 kts 337°
2026-05-07 19:09 24.38487 -69.76720 35073 ft 444 kts 337°
2026-05-07 19:10 24.44191 -69.79348 35075 ft 444 kts 337°
2026-05-07 19:10 24.49864 -69.81964 35077 ft 444 kts 337°
2026-05-07 19:11 24.55570 -69.84598 35080 ft 444 kts 336°
2026-05-07 19:11 24.61237 -69.87216 35069 ft 444 kts 336°
2026-05-07 19:12 24.66945 -69.89856 35071 ft 443 kts 336°
2026-05-07 19:12 24.72633 -69.92490 35071 ft 443 kts 336°
2026-05-07 19:13 24.78306 -69.95119 35074 ft 443 kts 336°
2026-05-07 19:13 24.83999 -69.97760 35073 ft 443 kts 336°
2026-05-07 19:14 24.89660 -70.00390 35081 ft 443 kts 336°
2026-05-07 19:14 24.95362 -70.03041 35075 ft 443 kts 336°
2026-05-07 19:15 25.01082 -70.05511 35065 ft 444 kts 343°
2026-05-07 19:15 25.07152 -70.06937 35071 ft 445 kts 347°
2026-05-07 19:16 25.13198 -70.08269 35074 ft 445 kts 347°
2026-05-07 19:16 25.19285 -70.09639 35076 ft 445 kts 346°
2026-05-07 19:17 25.25328 -70.11024 35077 ft 445 kts 346°
2026-05-07 19:17 25.31406 -70.12426 35076 ft 445 kts 346°
2026-05-07 19:18 25.37488 -70.13832 35073 ft 445 kts 346°
2026-05-07 19:18 25.43526 -70.15229 35073 ft 445 kts 346°
2026-05-07 19:19 25.49597 -70.16634 35085 ft 445 kts 346°
2026-05-07 19:19 25.55675 -70.18042 35079 ft 445 kts 346°
2026-05-07 19:20 25.61716 -70.19443 35077 ft 445 kts 346°
2026-05-07 19:20 25.67791 -70.20854 35078 ft 444 kts 346°
2026-05-07 19:21 25.73810 -70.22252 35074 ft 444 kts 346°
2026-05-07 19:21 25.79872 -70.23662 35084 ft 443 kts 346°
2026-05-07 19:22 25.85886 -70.25063 35078 ft 443 kts 346°
2026-05-07 19:22 25.91948 -70.26476 35079 ft 443 kts 346°
2026-05-07 19:23 25.97942 -70.27875 35079 ft 443 kts 346°
2026-05-07 19:23 26.03989 -70.29287 35079 ft 443 kts 346°
2026-05-07 19:24 26.10027 -70.30699 35084 ft 443 kts 346°
2026-05-07 19:24 26.16025 -70.32103 35077 ft 443 kts 346°
2026-05-07 19:25 26.22074 -70.33521 35080 ft 442 kts 346°
2026-05-07 19:25 26.28066 -70.34926 35078 ft 442 kts 346°
2026-05-07 19:26 26.34108 -70.36345 35082 ft 442 kts 346°
2026-05-07 19:26 26.40142 -70.37764 35081 ft 442 kts 346°
2026-05-07 19:27 26.46126 -70.39172 35082 ft 442 kts 346°
2026-05-07 19:27 26.52155 -70.40593 35082 ft 442 kts 346°
2026-05-07 19:28 26.58191 -70.42016 35079 ft 442 kts 346°
2026-05-07 19:28 26.64185 -70.43431 35079 ft 442 kts 346°
2026-05-07 19:29 26.70208 -70.44855 35090 ft 442 kts 346°
2026-05-07 19:29 26.76212 -70.46275 35081 ft 442 kts 346°
2026-05-07 19:30 26.82243 -70.47704 35081 ft 442 kts 346°
2026-05-07 19:30 26.88260 -70.49131 35081 ft 441 kts 346°
2026-05-07 19:31 26.94248 -70.50552 35079 ft 441 kts 346°
2026-05-07 19:31 27.00262 -70.51981 35085 ft 441 kts 346°
2026-05-07 19:32 27.06245 -70.53405 35080 ft 441 kts 346°
2026-05-07 19:32 27.12260 -70.54837 35082 ft 441 kts 346°
2026-05-07 19:33 27.18240 -70.56263 35078 ft 440 kts 346°
2026-05-07 19:33 27.24254 -70.57698 35079 ft 440 kts 346°
2026-05-07 19:34 27.30249 -70.59131 35084 ft 440 kts 346°
2026-05-07 19:34 27.36206 -70.60556 35077 ft 440 kts 346°
2026-05-07 19:35 27.42198 -70.61991 35083 ft 440 kts 346°
2026-05-07 19:35 27.48198 -70.63429 35082 ft 440 kts 346°
2026-05-07 19:36 27.54169 -70.64862 35080 ft 440 kts 346°
2026-05-07 19:36 27.60168 -70.66304 35087 ft 440 kts 346°
2026-05-07 19:37 27.66127 -70.67737 35079 ft 439 kts 345°
2026-05-07 19:37 27.72120 -70.69180 35079 ft 439 kts 345°
2026-05-07 19:38 27.78103 -70.70623 35081 ft 439 kts 345°
2026-05-07 19:38 27.84054 -70.72059 35082 ft 439 kts 345°
2026-05-07 19:39 27.90032 -70.73503 35083 ft 439 kts 345°
2026-05-07 19:39 27.96022 -70.74952 35078 ft 439 kts 345°
2026-05-07 19:40 28.01961 -70.76391 35082 ft 439 kts 345°
2026-05-07 19:40 28.07951 -70.77843 35082 ft 439 kts 345°
2026-05-07 19:41 28.13894 -70.79286 35080 ft 438 kts 345°
2026-05-07 19:41 28.19877 -70.80739 35082 ft 438 kts 345°
2026-05-07 19:42 28.25826 -70.82187 35078 ft 438 kts 345°
2026-05-07 19:42 28.31770 -70.83634 35079 ft 438 kts 345°
2026-05-07 19:43 28.37743 -70.85091 35082 ft 438 kts 345°
2026-05-07 19:43 28.43717 -70.86549 35081 ft 438 kts 345°
2026-05-07 19:44 28.49643 -70.87998 35081 ft 438 kts 345°
2026-05-07 19:44 28.55609 -70.89458 35079 ft 438 kts 345°
2026-05-07 19:45 28.61577 -70.90920 35079 ft 437 kts 345°
2026-05-07 19:45 28.67505 -70.92374 35078 ft 437 kts 345°
2026-05-07 19:46 28.73471 -70.93839 35089 ft 437 kts 344°
2026-05-07 19:46 28.79405 -70.95297 35082 ft 437 kts 344°
2026-05-07 19:47 28.85339 -70.96758 35078 ft 437 kts 344°
2026-05-07 19:47 28.91298 -70.98226 35079 ft 437 kts 344°
2026-05-07 19:48 28.97259 -70.99696 35079 ft 437 kts 344°
2026-05-07 19:48 29.03173 -71.01156 35089 ft 437 kts 344°
2026-05-07 19:49 29.09128 -71.02629 35073 ft 437 kts 344°
2026-05-07 19:49 29.15041 -71.04093 35074 ft 436 kts 344°
2026-05-07 19:50 29.20990 -71.05568 35079 ft 436 kts 344°
2026-05-07 19:50 29.26894 -71.07033 35077 ft 436 kts 344°
2026-05-07 19:51 29.32837 -71.08510 35077 ft 436 kts 344°
2026-05-07 19:51 29.38779 -71.09988 35073 ft 436 kts 344°
2026-05-07 19:52 29.44679 -71.11457 35072 ft 436 kts 344°
2026-05-07 19:52 29.49625 -71.12691 35074 ft 436 kts 344°
2026-05-07 19:53 29.55564 -71.14173 35073 ft 436 kts 344°
2026-05-07 19:53 29.61502 -71.15657 35075 ft 436 kts 343°
2026-05-07 19:54 29.67395 -71.17131 35069 ft 436 kts 343°
2026-05-07 19:54 29.73329 -71.18618 35068 ft 436 kts 343°
2026-05-07 19:55 29.79265 -71.20107 35065 ft 436 kts 343°
2026-05-07 19:55 29.85156 -71.21586 35063 ft 435 kts 343°
2026-05-07 19:56 29.91092 -71.23078 35070 ft 435 kts 343°
2026-05-07 19:56 29.96996 -71.24565 35062 ft 435 kts 343°
2026-05-07 19:57 30.02925 -71.26059 35065 ft 435 kts 343°
2026-05-07 19:57 30.08823 -71.27547 35063 ft 435 kts 343°
2026-05-07 19:58 30.14742 -71.29043 35058 ft 435 kts 343°
2026-05-07 19:58 30.20668 -71.30542 35065 ft 435 kts 343°
2026-05-07 19:59 30.26541 -71.32029 35050 ft 434 kts 343°
2026-05-07 19:59 30.32461 -71.33530 35048 ft 434 kts 343°
2026-05-07 20:00 30.38375 -71.35032 35053 ft 434 kts 343°
2026-05-07 20:00 30.44259 -71.36528 35063 ft 434 kts 342°
2026-05-07 20:01 30.50171 -71.38033 35052 ft 434 kts 342°
2026-05-07 20:01 30.56080 -71.39538 35050 ft 434 kts 342°
2026-05-07 20:02 30.61963 -71.41040 35043 ft 434 kts 342°
2026-05-07 20:02 30.67847 -71.42543 35048 ft 434 kts 342°
2026-05-07 20:03 30.73753 -71.44053 35062 ft 434 kts 342°
2026-05-07 20:03 30.79675 -71.45570 35053 ft 434 kts 342°
2026-05-07 20:04 30.85550 -71.47077 35043 ft 434 kts 342°
2026-05-07 20:04 30.91464 -71.48596 35044 ft 434 kts 342°
2026-05-07 20:05 30.97336 -71.50105 35041 ft 434 kts 342°
2026-05-07 20:05 31.03244 -71.51626 35047 ft 434 kts 342°
2026-05-07 20:06 31.09145 -71.53147 35041 ft 434 kts 342°
2026-05-07 20:06 31.15026 -71.54665 35038 ft 434 kts 342°
2026-05-07 20:07 31.20904 -71.56184 35035 ft 434 kts 342°
2026-05-07 20:07 31.26824 -71.57716 35050 ft 435 kts 341°
2026-05-07 20:08 31.32709 -71.59241 35039 ft 435 kts 341°
2026-05-07 20:08 31.38633 -71.60777 35033 ft 435 kts 341°
2026-05-07 20:09 31.44563 -71.62317 35030 ft 436 kts 341°
2026-05-07 20:10 31.53425 -71.64623 35029 ft 436 kts 341°
2026-05-07 20:10 31.59328 -71.66161 35046 ft 436 kts 341°
2026-05-07 20:11 31.65261 -71.67710 35024 ft 437 kts 341°
2026-05-07 20:11 31.71165 -71.69252 35019 ft 437 kts 341°
2026-05-07 20:12 31.77108 -71.70806 35019 ft 437 kts 341°
2026-05-07 20:12 31.83061 -71.72366 35029 ft 437 kts 341°
2026-05-07 20:13 31.88981 -71.73919 35022 ft 438 kts 341°
2026-05-07 20:13 31.94937 -71.75484 35013 ft 438 kts 341°
2026-05-07 20:14 32.00907 -71.77053 35012 ft 438 kts 341°
2026-05-07 20:14 32.06836 -71.78614 35009 ft 438 kts 341°
2026-05-07 20:15 32.12807 -71.80190 35008 ft 438 kts 341°
2026-05-07 20:15 32.18769 -71.81765 35005 ft 438 kts 341°
2026-05-07 20:16 32.24689 -71.83331 35006 ft 438 kts 341°
2026-05-07 20:16 32.30660 -71.84913 35003 ft 438 kts 341°
2026-05-07 20:17 32.36586 -71.86486 35011 ft 439 kts 341°
2026-05-07 20:17 32.42560 -71.88073 35001 ft 439 kts 341°
2026-05-07 20:18 32.48510 -71.89656 34988 ft 440 kts 341°
2026-05-07 20:18 32.54513 -71.91255 34993 ft 440 kts 341°
2026-05-07 20:19 32.60466 -71.92843 34981 ft 440 kts 341°
2026-05-07 20:19 32.66458 -71.94444 34990 ft 441 kts 341°
2026-05-07 20:20 32.72413 -71.96037 34986 ft 441 kts 341°
2026-05-07 20:20 32.78406 -71.97642 34983 ft 441 kts 341°
2026-05-07 20:21 32.84399 -71.99249 34975 ft 441 kts 341°
2026-05-07 20:21 32.90361 -72.00851 34987 ft 441 kts 340°
2026-05-07 20:22 32.96361 -72.02465 34975 ft 442 kts 340°
2026-05-07 20:22 33.02335 -72.04074 34964 ft 442 kts 340°
2026-05-07 20:23 33.08353 -72.05696 34963 ft 442 kts 340°
2026-05-07 20:23 33.14372 -72.07321 34963 ft 442 kts 340°
2026-05-07 20:24 33.20350 -72.08938 34969 ft 444 kts 340°
2026-05-07 20:24 33.26401 -72.10577 34958 ft 444 kts 340°
2026-05-07 20:25 33.32416 -72.12207 34944 ft 445 kts 340°
2026-05-07 20:25 33.38464 -72.13849 34946 ft 445 kts 340°
2026-05-07 20:26 33.44479 -72.15485 34953 ft 446 kts 340°
2026-05-07 20:26 33.50548 -72.17138 34943 ft 446 kts 340°
2026-05-07 20:27 33.56594 -72.18787 34935 ft 447 kts 340°
2026-05-07 20:27 33.62668 -72.20446 34938 ft 447 kts 340°
2026-05-07 20:28 33.68706 -72.22097 34961 ft 447 kts 340°
2026-05-07 20:28 33.74774 -72.23760 34938 ft 447 kts 340°
2026-05-07 20:29 33.80857 -72.25429 34936 ft 448 kts 340°
2026-05-07 20:29 33.86902 -72.27087 34919 ft 447 kts 340°
2026-05-07 20:30 33.92985 -72.28763 34922 ft 447 kts 340°
2026-05-07 20:30 33.99054 -72.30365 34920 ft 452 kts 343°
2026-05-07 20:31 34.05377 -72.31134 34929 ft 457 kts 347°
2026-05-07 20:31 34.11696 -72.31707 34920 ft 458 kts 347°
2026-05-07 20:32 34.18055 -72.32331 34913 ft 457 kts 347°
2026-05-07 20:32 34.24379 -72.33001 34922 ft 458 kts 346°
2026-05-07 20:33 34.30745 -72.33689 34912 ft 458 kts 346°
2026-05-07 20:33 34.37075 -72.34374 34906 ft 458 kts 346°
2026-05-07 20:34 34.43440 -72.35061 34904 ft 458 kts 346°
2026-05-07 20:34 34.49771 -72.35745 34908 ft 459 kts 346°
2026-05-07 20:35 34.56131 -72.36434 34898 ft 459 kts 346°
2026-05-07 20:35 34.62502 -72.37125 34897 ft 459 kts 346°
2026-05-07 20:36 34.68836 -72.37812 34898 ft 459 kts 346°
2026-05-07 20:36 34.75284 -72.37891 34892 ft 474 kts 358°
2026-05-07 20:37 34.81835 -72.36735 34889 ft 476 kts 360°
2026-05-07 20:37 34.88397 -72.35577 34890 ft 475 kts 359°
2026-05-07 20:38 34.94913 -72.34507 34905 ft 475 kts 358°
2026-05-07 20:38 35.01440 -72.33928 34894 ft 466 kts 352°
2026-05-07 20:39 35.07925 -72.33920 34872 ft 466 kts 351°
2026-05-07 20:39 35.13332 -72.33932 34883 ft 466 kts 351°
2026-05-07 20:40 35.19852 -72.33886 34898 ft 467 kts 351°
2026-05-07 20:40 35.26345 -72.33800 34879 ft 469 kts 351°
2026-05-07 20:41 35.32885 -72.33705 34872 ft 469 kts 351°
2026-05-07 20:41 35.39383 -72.33611 34866 ft 469 kts 351°
2026-05-07 20:42 35.45926 -72.33519 34874 ft 469 kts 351°
2026-05-07 20:42 35.52435 -72.33429 34863 ft 470 kts 351°
2026-05-07 20:43 35.58980 -72.33336 34849 ft 470 kts 351°
2026-05-07 20:43 35.65536 -72.33243 34843 ft 469 kts 351°
2026-05-07 20:44 35.72041 -72.33154 34843 ft 470 kts 349°
2026-05-07 20:44 35.78580 -72.33061 34841 ft 470 kts 349°
2026-05-07 20:45 35.85095 -72.32968 34828 ft 470 kts 349°
2026-05-07 20:45 35.91654 -72.32875 34856 ft 469 kts 349°
2026-05-07 20:46 35.98202 -72.32782 34831 ft 469 kts 349°
2026-05-07 20:46 36.04489 -72.32913 34807 ft 457 kts 341°
2026-05-07 20:46 36.07516 -72.33663 34818 ft 443 kts 334°
2026-05-07 20:47 36.10500 -72.34647 34811 ft 442 kts 333°
2026-05-07 20:47 36.16448 -72.36660 34853 ft 441 kts 333°
2026-05-07 20:48 36.22352 -72.38615 34815 ft 440 kts 333°
2026-05-07 20:48 36.28286 -72.40544 34801 ft 440 kts 333°
2026-05-07 20:49 36.34210 -72.42463 34799 ft 439 kts 333°
2026-05-07 20:49 36.40087 -72.44370 34802 ft 438 kts 333°
2026-05-07 20:50 36.46009 -72.46298 34810 ft 439 kts 333°
2026-05-07 20:50 36.51896 -72.48217 34809 ft 440 kts 333°
2026-05-07 20:51 36.57827 -72.50153 34804 ft 441 kts 334°
2026-05-07 20:51 36.63646 -72.52055 34807 ft 442 kts 334°
2026-05-07 20:52 36.69500 -72.53915 34807 ft 449 kts 338°
2026-05-07 20:52 36.72641 -72.54392 34812 ft 463 kts 346°
2026-05-07 20:52 36.75883 -72.54477 34820 ft 466 kts 348°
2026-05-07 20:53 36.82396 -72.54518 34814 ft 466 kts 348°
2026-05-07 20:53 36.88861 -72.54593 34839 ft 466 kts 348°
2026-05-07 20:54 36.95358 -72.54720 34823 ft 467 kts 348°
2026-05-07 20:54 37.01743 -72.54858 34818 ft 467 kts 348°
2026-05-07 20:55 37.08252 -72.54996 34816 ft 467 kts 348°
2026-05-07 20:55 37.14769 -72.55132 34821 ft 467 kts 348°
2026-05-07 20:56 37.21274 -72.55327 34822 ft 461 kts 343°
2026-05-07 20:56 37.24363 -72.55933 34824 ft 447 kts 335°
2026-05-07 20:56 37.27282 -72.57102 34838 ft 438 kts 329°
2026-05-07 20:57 37.33018 -72.59697 34816 ft 438 kts 329°
2026-05-07 20:57 37.38800 -72.62303 34853 ft 446 kts 328°
2026-05-07 20:58 37.44680 -72.64913 34830 ft 450 kts 329°
2026-05-07 20:58 37.50611 -72.67518 34834 ft 450 kts 329°
2026-05-07 20:59 37.56488 -72.70104 34838 ft 450 kts 329°
2026-05-07 20:59 37.62399 -72.72715 34864 ft 450 kts 328°
2026-05-07 21:00 37.68319 -72.75336 34889 ft 449 kts 327°
2026-05-07 21:00 37.74187 -72.77937 34846 ft 449 kts 328°
2026-05-07 21:01 37.80076 -72.80553 34859 ft 448 kts 328°
2026-05-07 21:01 37.85971 -72.83177 34907 ft 448 kts 327°
2026-05-07 21:02 37.91874 -72.85811 34861 ft 449 kts 327°
2026-05-07 21:02 37.97731 -72.88424 34858 ft 449 kts 327°
2026-05-07 21:03 38.03637 -72.91065 34860 ft 449 kts 327°
2026-05-07 21:03 38.09535 -72.93708 34894 ft 448 kts 327°
2026-05-07 21:04 38.15340 -72.96476 34865 ft 439 kts 319°
2026-05-07 21:04 38.17833 -72.98573 34881 ft 421 kts 307°
2026-05-07 21:04 38.19905 -73.01094 34878 ft 411 kts 299°
2026-05-07 21:05 38.23064 -73.07004 34871 ft 403 kts 291°
2026-05-07 21:05 38.26078 -73.13069 34860 ft 404 kts 291°
2026-05-07 21:06 38.29063 -73.19000 34859 ft 396 kts 291°
2026-05-07 21:06 38.32045 -73.24912 34867 ft 395 kts 291°
2026-05-07 21:07 38.34997 -73.30769 34925 ft 394 kts 291°
2026-05-07 21:07 38.37861 -73.36458 34874 ft 391 kts 290°
2026-05-07 21:08 38.40772 -73.42254 34880 ft 387 kts 290°
2026-05-07 21:08 38.43646 -73.47983 34872 ft 384 kts 290°
2026-05-07 21:09 38.46600 -73.53697 34874 ft 384 kts 291°
2026-05-07 21:09 38.49560 -73.59348 34874 ft 383 kts 291°
2026-05-07 21:10 38.52501 -73.65034 34878 ft 383 kts 291°
2026-05-07 21:10 38.55370 -73.70718 34887 ft 381 kts 290°
2026-05-07 21:11 38.58239 -73.76410 34877 ft 379 kts 290°
2026-05-07 21:11 38.61735 -73.83346 34879 ft 378 kts 290°
2026-05-07 21:12 38.64577 -73.89015 34884 ft 378 kts 290°
2026-05-07 21:12 38.67417 -73.94692 34883 ft 378 kts 290°
2026-05-07 21:13 38.70237 -74.00335 34935 ft 379 kts 289°
2026-05-07 21:13 38.73085 -74.06048 34912 ft 380 kts 289°
2026-05-07 21:14 38.74495 -74.08878 34742 ft 379 kts 289°
2026-05-07 21:14 38.75899 -74.11696 34171 ft 376 kts 289°
2026-05-07 21:14 38.77305 -74.14517 33439 ft 374 kts 289°
2026-05-07 21:14 38.78706 -74.17336 32626 ft 374 kts 289°
2026-05-07 21:15 38.80107 -74.20162 31831 ft 374 kts 289°
2026-05-07 21:15 38.81501 -74.22975 31028 ft 373 kts 289°
2026-05-07 21:15 38.82894 -74.25791 30210 ft 377 kts 289°
2026-05-07 21:15 38.84306 -74.28667 29198 ft 395 kts 289°
2026-05-07 21:16 38.85795 -74.31691 28137 ft 403 kts 290°
2026-05-07 21:16 38.87304 -74.34729 27083 ft 404 kts 290°
2026-05-07 21:16 38.88818 -74.37780 25959 ft 407 kts 290°
2026-05-07 21:16 38.90344 -74.40873 24815 ft 411 kts 291°
2026-05-07 21:17 38.91852 -74.43924 24015 ft 406 kts 291°
2026-05-07 21:17 38.93366 -74.46985 23198 ft 402 kts 291°
2026-05-07 21:17 38.94862 -74.50017 22353 ft 398 kts 291°
2026-05-07 21:17 38.96332 -74.53000 21595 ft 391 kts 292°
2026-05-07 21:18 38.97782 -74.55949 20847 ft 387 kts 292°
2026-05-07 21:18 38.99191 -74.58823 20120 ft 381 kts 292°
2026-05-07 21:18 39.00602 -74.61706 19423 ft 382 kts 293°
2026-05-07 21:18 39.02029 -74.64633 18702 ft 385 kts 294°
2026-05-07 21:19 39.03454 -74.67547 17924 ft 382 kts 294°
2026-05-07 21:19 39.04846 -74.70388 17133 ft 378 kts 294°
2026-05-07 21:19 39.06234 -74.73225 16505 ft 370 kts 294°
2026-05-07 21:19 39.07601 -74.76021 15820 ft 367 kts 295°
2026-05-07 21:20 39.09185 -74.78630 15066 ft 379 kts 310°
2026-05-07 21:20 39.11386 -74.80589 14518 ft 391 kts 324°
2026-05-07 21:20 39.13969 -74.81873 13871 ft 402 kts 335°
2026-05-07 21:20 39.16656 -74.82868 13118 ft 401 kts 337°
2026-05-07 21:21 39.19335 -74.83811 12359 ft 397 kts 338°
2026-05-07 21:21 39.21949 -74.84738 11670 ft 391 kts 338°
2026-05-07 21:21 39.24551 -74.85683 11023 ft 384 kts 338°
2026-05-07 21:21 39.27076 -74.86617 10593 ft 372 kts 337°
2026-05-07 21:22 39.29508 -74.87527 10347 ft 356 kts 337°
2026-05-07 21:22 39.31837 -74.88405 10093 ft 341 kts 337°
2026-05-07 21:22 39.34035 -74.89232 9997 ft 315 kts 336°
2026-05-07 21:22 39.36061 -74.89991 9989 ft 291 kts 336°
2026-05-07 21:23 39.37942 -74.90700 9868 ft 274 kts 335°
2026-05-07 21:23 39.39738 -74.91382 9644 ft 264 kts 335°
2026-05-07 21:23 39.41482 -74.92046 9403 ft 260 kts 336°
2026-05-07 21:23 39.43226 -74.92713 9169 ft 264 kts 336°
2026-05-07 21:24 39.45001 -74.93391 8921 ft 268 kts 337°
2026-05-07 21:24 39.46789 -74.94070 8657 ft 267 kts 337°
2026-05-07 21:24 39.48561 -74.94740 8400 ft 263 kts 338°
2026-05-07 21:24 39.50306 -74.95401 8149 ft 260 kts 339°
2026-05-07 21:25 39.52043 -74.96059 8057 ft 261 kts 339°
2026-05-07 21:25 39.53765 -74.96762 8026 ft 262 kts 332°
2026-05-07 21:25 39.55332 -74.97958 7684 ft 263 kts 321°
2026-05-07 21:25 39.56802 -74.99371 7327 ft 263 kts 320°
2026-05-07 21:26 39.58418 -75.00478 6980 ft 267 kts 344°